Location: Novo Ouro Preto
(19.8840°S, 43.9844°W)
Time: 09:40:25
(UTC+00:00)

Intelsat 5-2 Rocket - Pass Details

Date: 18 September 2020
Orbit: 342 x 10129 km, 23.6° (Epoch: 21 October)

Event Time Altitude Azimuth Distance (km) Brightness Sun altitude
Rises 22:13:23 0° 256° (WSW) 5,711 9.5 -20.1°
Reaches altitude 10° 22:18:46 10° 259° (W) 3,448 8.0 -21.4°
Maximum altitude 22:25:34 52° 335° (NNW) 765 3.5 -23.0°
Enters shadow 22:26:01 49° 1° (N) 753 3.3 -23.1°
